Overview Statistics Trail Chart Weather Telemetry Raw packets
 

This is the latest recevied weather packets stored in our database for station/object F1ZTH-10. If no packets are shown the sender has not sent any weather packets the latest 10 day(s).

<< 13 14 15 16 17 18 19 >>
Time Temp. Humidity Pressure Rain* Wind** Luminosity Snow
1788383193 22.22° C 48% 982 hPa - - - -
1788382293 22.78° C 48% 982 hPa - - - -
1788381393 22.78° C 48% 982 hPa - - - -
1788380493 23.33° C 47% 982 hPa - - - -
1788379593 23.33° C 47% 982 hPa - - - -
1788378693 23.89° C 46% 982 hPa - - - -
1788377793 23.89° C 46% 982 hPa - - - -
1788376893 23.89° C 46% 981 hPa - - - -
1788375993 24.44° C 45% 981 hPa - - - -
1788375093 25° C 45% 981 hPa - - - -
1788373292 26.67° C 43% 981 hPa - - - -
1788372392 27.78° C 42% 981 hPa - - - -
1788371492 30.56° C 39% 981 hPa - - - -
1788370592 30° C 40% 981 hPa - - - -
1788369692 31.11° C 39% 981 hPa - - - -
1788368792 30.56° C 39% 980 hPa - - - -
1788367892 32.78° C 37% 980 hPa - - - -
1788366992 31.67° C 38% 980 hPa - - - -
1788366092 31.11° C 39% 980 hPa - - - -
1788365192 33.33° C 37% 980 hPa - - - -
1788364292 33.33° C 36% 981 hPa - - - -
1788363392 35° C 34% 981 hPa - - - -
1788362492 33.89° C 36% 980 hPa - - - -
1788361592 32.78° C 37% 980 hPa - - - -
1788360691 32.78° C 36% 980 hPa - - - -

* Rain since midnight (hover to see other rain measurements)
** Current wind speed in m/s (hover to see current wind gust speed)